Regional Weather Roundup
Issued by NWS

Home | Current Version | Previous Version | Graphics & Text | Print | Product List | Glossary On
Versions: 1 2 3 4 5 6 7 8 9 10 11 12 13 14 15 16 17 18 19 20 21 22 23 24 25 26 27 28 29 30 31 32 33 34 35 36 37 38 39 40 41 42 43 44 45 46 47 48 49 50
275
ASUS43 KLOT 080808
RWRIL

ILLINOIS REGIONAL WEATHER ROUNDUP
NATIONAL WEATHER SERVICE CHICAGO/ROMEOVILLE IL
200 AM CST THU DEC 08 2016

NOTE: "FAIR" INDICATES FEW OR NO CLOUDS BELOW 12,000 FEET WITH NO
SIGNIFICANT WEATHER AND/OR OBSTRUCTIONS TO VISIBILITY.

* THESE STATIONS ARE NOT UNDER NWS QUALITY CONTROL. THEY ALSO MAY NOT
  REPORT WEATHER SUCH AS PRECIPITATION OR FOG.

ILZ001-002-007-009-015-016-024-080900-
NORTHWEST ILLINOIS

CITY           SKY/WX    TMP DP  RH WIND       PRES   REMARKS
MOLINE         CLOUDY    20  10  65 W20G32    30.27R WCI   4
STERLING*      FLURRIES  21  14  74 W20G28    30.22R WCI   6
SAVANNA*       CLOUDY    21  13  70 W10G20    30.22R WCI  10
$$

ILZ003-004-008-010-011-017-018-080900-
NORTH CENTRAL ILLINOIS

CITY           SKY/WX    TMP DP  RH WIND       PRES   REMARKS
ROCKFORD       FLURRIES  22  11  62 W18G31    30.18R WCI   7
FREEPORT*      FLURRIES  20  13  72 W13G21    30.19R WCI   7
ROCHELLE*      FLURRIES  21  15  76 W22G30    30.19R WCI   5
DE KALB*       CLOUDY    21  13  71 W22G30    30.16R WCI   5
$$

ILZ005-006-012>014-019>023-080900-
NORTHEAST ILLINOIS

CITY           SKY/WX    TMP DP  RH WIND       PRES   REMARKS
CHICAGO-OHARE  FLURRIES  23  14  68 W21G32    30.14S WCI   8
CHICAGO-MIDWAY FLURRIES  24  13  62 W17G26    30.17R WCI  11
AURORA         CLOUDY    23  15  71 W25G31    30.18R WCI   7
LANSING*       CLOUDY    24  17  75 W20       30.18R WCI   9
JOLIET*        CLOUDY    25  16  70 W13G23    30.20R WCI  13
WAUKEGAN       CLOUDY    23  12  62 W15G23    30.11R WCI  10
DUPAGE AIRPORT CLOUDY    23  12  62 W25G32    30.15S WCI   7
KANKAKEE*      CLOUDY    24  15  69 W18G24    30.22R WCI  10
WHEELING       CLOUDY    24  13  62 W15G24    30.15S WCI  11
MORRIS*        CLOUDY    23  15  71 W20       30.20R WCI   8
ROMEOVILLE*    CLOUDY    23  18  82 W18G26    30.18S WCI   8
NORTHERLY ISL    N/A     25  16  68 W14         N/A  WCI  13
$$

LMZ740>746-080900-
SOUTHERN LAKE MICHIGAN

STATION/POSITION SKY/WX   TEMP    WIND        PRES    VSBY  WAVE
                          AIR SEA DIR/SP/G                  HT/PER
                          (F)     (DEG/KT/KT) (MB)    (MI)  (FT/S)
HARRISON CRIB              26     270/ 26/ 29   N/A
BURNHAM HARBOR             24     230/ 16/ 18   N/A
CALUMET HARBOR             24     240/ 11/ 20 1020.8R
BURNS HARBOR               27     260/ 22/ 27 1021.7R
MICHIGAN CITY              26     240/ 21/ 23   N/A
$$

ILZ025>027-034>036-040-047-049-050-058-095>099-080900-
WEST-CENTRAL ILLINOIS

CITY           SKY/WX    TMP DP  RH WIND       PRES   REMARKS
QUINCY         CLEAR     20  11  68 W15G23    30.36R WCI   6
GALESBURG*     CLEAR     19  12  75 W18G25    30.29R WCI   3
MACOMB*        CLEAR     20  13  74 W14       30.34R WCI   6
JACKSONVILLE*  CLEAR     20  13  73 W14       30.35R WCI   7
PITTSFIELD*    CLEAR     22  12  66 W12G18    30.37R WCI  10
$$

ILZ028>032-037-038-041>044-048-051>054-059>061-080900-
CENTRAL ILLINOIS

CITY           SKY/WX    TMP DP  RH WIND       PRES   REMARKS
PONTIAC        PTCLDY    22  17  79 W17G24    30.25R WCI   8
BLOOMINGTON    CLEAR     20  13  74 W16G24    30.26R WCI   6
DECATUR        CLEAR     22  12  65 W13G21    30.30R WCI  10
PEORIA         CLEAR     20  11  68 W15G22    30.30R WCI   6
LACON*         CLEAR     20  13  73 W14G20    30.26S WCI   7
LINCOLN*       CLEAR     23  14  70 W9        30.30S WCI  13
SPRINGFIELD    CLEAR     23  14  68 W14       30.33R WCI  11
TAYLORVILLE    CLEAR     22  13  69 W8        30.34R WCI  13
$$

ILZ033-039-045-046-055>057-062-063-080900-
EAST-CENTRAL ILLINOIS

CITY           SKY/WX    TMP DP  RH WIND       PRES   REMARKS
CHAMPAIGN      CLEAR     22  14  71 W17       30.27R WCI   8
RANTOUL*       CLEAR     24  17  75 W13       30.25R WCI  12
MATTOON        MOCLDY    23  13  65 NW21G31   30.29R WCI   8
PARIS*         PTCLDY    24  17  77 W16       30.29R WCI  10
$$

ILZ079-100>102-080900-
SOUTHWEST ILLINOIS

CITY           SKY/WX    TMP DP  RH WIND       PRES   REMARKS
ALTON          CLEAR     24  14  66 W14G21    30.38R WCI  12
BELLEVILLE     CLEAR     25  14  62 NW10      30.37R WCI  15
CAHOKIA*       PTCLDY    26  13  57 NW16G24   30.40R WCI  14
SPARTA*        PTCLDY    27  17  64 NW12      30.38R WCI  17
$$

ILZ064>066-069>071-074>076-080>082-084>086-088>090-092>094-080900-
SOUTH-CENTRAL ILLINOIS

CITY           SKY/WX    TMP DP  RH WIND       PRES   REMARKS
CARBONDALE     CLEAR     29  20  69 NW12      30.36R WCI  19
CAIRO*         CLOUDY    34  23  63 NW16      30.36R WCI  23
EFFINGHAM*     CLEAR     26  19  75 W13       30.34R WCI  15
MARION           N/A     32  18  55 NW8G16    30.36R WCI  25
CENTRALIA*     PTCLDY    29  20  70 NW15G21   30.34R WCI  18
SALEM*         MOCLDY    29  19  66 NW14      30.34R WCI  18
METROPOLIS*    CLOUDY    35  23  62 NW6       30.35R WCI  29
$$

ILZ067-068-072-073-078-083-087-091-080900-
SOUTHEAST ILLINOIS

CITY           SKY/WX    TMP DP  RH WIND       PRES   REMARKS
LAWRENCEVILLE  CLOUDY    30  19  63 NW20G26   30.30R WCI  17
FLORA*         CLOUDY    30  20  67 NW12      30.33R WCI  20
FAIRFIELD*     CLOUDY    30  19  62 NW3       30.32R
HARRISBURG*    PTCLDY    32  20  63 NW16G22   30.34R WCI  21
ROBINSON*      CLOUDY    28  18  66 NW17G24   30.31R WCI  16
CARMI*         MOCLDY    31  22  70 NW15G21   30.32R WCI  20
$$

ABBREVIATIONS USED IN REMARKS
   TC - TEMPERATURE IN CELSIUS
  WCI - WIND CHILL INDEX
   HX - HEAT INDEX
  VSB - VISIBILITY
$$





USA.gov is the U.S. government's official web portal to all federal, state and local government web resources and services.